Tracking 19709 objects as of 18-Jun-2019
HD Live streaming from Space Station
objects crossing your sky now

FLOCK 3K 7

Track FLOCK 3K 7 now!
10-day predictions
FLOCK 3K 7 is classified as:


NORAD ID: 43902
Int'l Code: 2018-111AC
Perigee: 484.3 km
Apogee: 515.7 km
Inclination: 97.3 °
Period: 94.5 minutes
Semi major axis: 6870 km
RCS: Unknown
Launch date: December 27, 2018
Source: United States (US)
Launch site: VOSTOCHNY COSMODROME (VOSTO)
aabbcc
Your satellite tracking list
Your tracking list is empty




NASA's NSSDC Master Catalog

Two Line Element Set (TLE):
1 43902U 18111AC  19168.69891154 +.00000918 +00000-0 +40201-4 0  9997
2 43902 097.2902 073.9385 0022795 000.6267 359.4995 15.24310398026299
Source of the keplerian elements: AFSPC